Wind_Speed
10 5 5 7 8 10 11 12 14 12 12 13 15 17 17 16 15 15 15 12 13 13 15 16 17 17 16 16 16 17 18 18 17 15 15 14 14 14 14 15 15 14 14
5 6 5 7 9 10 11 11 13 14 13 12 14 16 17 16 16 15 16 14 13 14 15 16 16 16 16 15 15 16 15 15 15 14 14 13 13 13 13 13 14 12 12
4 5 5 7 9 11 11 12 12 13 14 13 14 15 16 17 16 16 16 15 14 14 14 15 15 15 15 14 14 14 14 14 13 14 14 13 12 13 12 12 12 11 11
6 5 5 6 8 10 12 12 12 11 13 13 14 14 15 17 16 15 15 15 14 14 14 14 14 14 14 13 12 11 12 12 12 12 14 13 13 13 12 12 11 11 11
8 6 5 7 8 9 12 12 13 12 13 12 13 14 14 15 15 15 15 15 14 14 14 13 14 13 12 11 9 9 10 11 12 11 13 14 12 12 12 11 11 11 12
7 7 5 8 8 9 11 13 13 14 14 13 12 13 14 14 14 14 14 14 15 14 14 13 12 11 11 9 8 8 8 10 11 10 12 13 11 11 11 11 10 9 9
7 5 6 7 10 9 10 13 13 14 14 13 13 13 13 13 13 13 13 13 14 14 14 13 11 10 9 8 7 7 7 8 8 8 11 11 8 8 8 8 8 8 8
8 7 7 7 10 12 11 12 14 13 14 14 13 13 13 13 13 13 12 13 13 13 13 13 12 10 9 7 7 6 5 5 6 1 11 7 6 6 7 7 8 9 9
11 10 8 8 9 13 14 14 13 14 14 15 14 13 13 12 13 13 12 12 13 13 13 12 12 11 10 9 7 6 4 4 4 4 6 5 5 6 7 8 8 9 10
8 12 11 10 10 12 15 16 16 15 14 15 15 14 13 12 12 12 12 12 11 12 12 12 11 11 10 10 8 7 5 3 2 5 5 3 3 5 7 8 10 10 11
10 15 15 14 12 13 15 17 18 18 17 16 15 14 13 13 12 11 10 11 11 11 11 11 11 11 11 10 9 8 6 4 3 1 1 0 2 5 7 9 11 11 12
12 11 19 18 17 16 17 19 19 19 18 17 15 15 13 13 13 12 11 11 10 10 10 10 10 11 11 11 11 9 7 4 5 5 2 3 5 7 9 10 12 13 13
17 13 18 23 22 21 20 20 20 20 19 18 17 16 15 14 13 12 11 10 10 9 9 9 9 10 11 11 11 10 9 8 7 9 6 6 8 10 11 12 13 14 15
20 19 14 24 27 25 23 23 21 21 20 18 17 17 16 16 15 13 12 11 11 10 10 9 10 10 11 11 10 9 9 9 11 12 10 10 10 12 13 14 15 15 16
24 25 20 17 29 29 27 26 25 23 21 20 19 19 18 17 16 15 14 13 12 12 11 11 10 10 10 11 11 10 11 11 11 14 14 13 13 13 15 16 16 17 17
16 28 27 22 20 31 33 29 27 26 23 23 21 20 19 18 18 16 16 15 15 13 13 13 12 12 12 13 13 13 13 13 14 17 18 17 16 16 17 18 18 18 17
10 22 31 31 23 25 36 33 31 29 27 26 23 21 22 21 19 18 17 17 17 16 16 16 16 16 16 16 15 15 16 16 16 17 19 20 19 19 19 19 19 19 17
13 13 26 28 29 26 29 39 34 33 31 29 27 25 25 23 22 21 21 19 20 20 19 18 18 18 18 18 18 18 18 19 19 19 20 21 21 21 21 20 19 19 17
22 17 19 27 28 27 27 34 39 37 36 32 31 29 27 27 25 24 23 21 22 23 22 21 21 20 20 20 19 20 20 21 20 20 20 20 22 22 22 21 20 18 16
36 28 22 29 24 30 30 28 36 40 41 38 35 32 30 30 29 27 25 24 25 25 25 24 22 22 21 21 22 22 22 22 21 21 20 20 20 20 21 22 22 19 17
38 33 23 29 30 33 35 32 34 41 44 43 41 35 33 32 31 30 28 28 29 29 27 25 24 24 24 22 24 23 23 24 23 21 20 21 22 20 19 19 20 20 20
39 36 26 26 35 37 34 39 33 33 39 47 44 42 39 37 33 32 32 31 31 32 30 28 28 26 26 25 26 25 25 24 25 21 21 21 20 19 19 18 19 20 20
40 38 35 27 30 36 39 32 33 31 34 44 50 47 46 41 38 36 35 35 33 35 33 31 30 30 28 27 28 29 29 27 24 23 23 25 23 21 18 18 19 20 21
32 38 35 34 31 33 37 36 36 35 33 37 43 48 48 47 44 41 38 37 35 36 37 35 33 33 32 30 31 31 29 28 29 29 27 27 27 26 24 23 22 22 25
24 35 34 28 31 36 34 39 39 35 35 33 37 42 46 49 50 46 44 40 39 39 40 39 37 36 36 34 33 31 32 31 31 32 32 30 32 30 30 30 28 25 27
30 35 34 30 30 29 32 37 42 35 32 33 37 42 42 45 47 51 49 45 42 41 40 40 40 40 39 38 37 35 35 35 34 35 36 33 33 34 35 34 31 31 32
Wind_Direction
74 101 159 164 160 150 133 134 130 135 132 124 121 119 117 118 120 120 120 122 127 126 124 123 120 119 116 114 113 111 105 103 105 105 103 101 99 94 87 84 81 79 77
74 90 161 166 167 154 139 139 135 139 135 130 124 122 121 120 119 120 120 121 124 123 122 120 119 117 115 114 111 105 106 107 107 103 96 88 81 79 78 75 73 70 70
95 80 147 169 174 157 145 142 140 143 140 137 130 128 126 124 124 121 122 122 124 124 123 122 121 119 117 113 110 110 112 110 107 102 93 87 82 76 73 73 73 68 64
103 89 129 169 181 165 150 147 144 149 149 145 137 135 132 131 131 130 127 126 127 127 127 127 125 123 119 116 118 120 118 113 108 101 99 87 80 76 71 65 60 57 53
116 104 124 158 186 177 157 153 149 151 153 157 149 145 140 137 136 135 134 133 133 133 131 131 130 129 126 126 125 120 117 115 106 107 99 85 78 69 63 59 52 49 44
127 117 122 161 182 185 169 159 158 154 152 157 159 155 149 144 142 141 141 141 141 140 138 137 134 133 131 129 122 121 115 106 119 111 97 83 72 66 58 51 41 40 41
145 135 132 175 173 188 182 170 166 163 156 156 161 162 160 155 153 151 152 150 147 148 147 145 142 138 133 126 123 121 113 110 115 121 97 83 76 66 54 47 40 35 31
180 163 157 176 189 183 190 188 174 174 164 162 164 166 166 164 161 161 162 161 157 156 155 153 150 146 140 136 136 136 129 116 102 109 98 102 76 54 40 29 24 18 17
186 189 182 184 198 197 188 192 191 183 176 170 172 172 171 171 169 167 169 172 169 166 165 161 157 154 152 154 157 156 163 161 139 135 113 93 59 29 18 7 7 4 1
199 205 201 190 204 212 203 198 195 192 191 181 180 181 178 177 176 175 174 176 177 176 172 168 164 162 161 162 166 174 190 194 260 117 110 77 37 11 356 353 353 352 349
236 226 213 201 204 213 217 212 204 196 199 193 188 189 187 182 180 182 182 183 184 183 179 175 172 171 170 171 176 188 205 225 249 253 209 197 331 339 333 339 337 336 335
264 235 230 215 207 213 217 218 219 213 205 201 197 195 193 193 186 186 191 188 187 191 189 185 182 178 179 181 187 196 211 221 264 286 257 285 313 318 320 326 324 323 323
252 253 235 225 214 212 217 220 221 222 218 210 201 201 198 199 201 194 197 197 191 192 195 193 190 188 191 193 201 206 198 209 243 263 283 290 301 308 314 315 314 314 314
282 242 239 232 228 218 213 221 221 224 224 222 212 208 204 205 205 200 203 204 199 194 198 199 197 198 202 206 214 229 248 225 241 273 285 296 301 301 303 305 305 306 307
297 288 255 243 231 231 220 221 220 220 223 223 219 219 211 209 214 204 209 208 207 204 201 206 209 211 216 221 227 237 247 261 261 274 283 289 293 296 298 298 299 300 302
276 287 276 252 247 232 238 223 226 222 221 225 223 221 222 214 215 215 216 214 215 213 211 213 218 223 226 235 242 246 253 259 268 278 286 290 292 294 293 295 295 296 298
233 288 289 276 250 246 238 233 230 226 224 223 223 224 229 225 219 221 220 223 225 221 223 222 227 231 238 243 250 259 264 269 271 271 278 287 290 290 290 289 290 291 294
205 256 275 283 271 243 248 242 234 234 228 226 225 222 227 230 228 224 226 224 229 231 232 236 236 243 243 250 255 260 263 266 270 275 277 282 284 284 284 284 283 282 285
219 243 266 259 275 278 251 249 242 240 238 230 228 225 224 230 234 230 231 234 236 239 238 237 242 247 252 257 258 261 265 267 270 270 273 277 280 284 283 280 277 277 278
209 216 242 243 257 275 279 265 252 239 241 239 232 231 226 228 233 236 234 237 243 245 247 247 249 252 255 258 264 268 270 271 273 273 275 276 276 276 278 281 283 285 282
210 212 226 234 228 258 266 266 262 246 237 238 240 234 233 229 233 237 237 237 241 247 251 254 255 255 257 261 263 267 272 275 275 274 279 281 284 288 284 280 280 281 283
216 210 213 220 223 228 254 258 258 253 245 238 237 242 238 236 231 235 242 240 242 247 248 251 255 259 261 262 269 269 268 271 275 283 277 280 284 286 288 286 281 277 277
227 220 215 211 228 220 234 246 256 252 247 238 235 235 241 240 239 236 237 245 246 250 251 251 252 254 259 260 262 265 269 274 276 273 279 278 279 275 274 279 282 277 271
241 237 229 222 229 232 229 233 252 256 254 245 239 238 239 243 242 241 238 240 246 250 252 253 252 253 255 255 260 263 267 272 274 274 270 273 278 283 285 279 276 277 277
244 241 242 236 233 232 229 229 233 243 259 254 245 244 246 242 243 242 242 240 241 246 251 252 253 254 257 257 257 260 266 267 268 273 275 276 280 282 284 289 294 291 286
254 247 245 247 243 238 234 231 230 237 239 243 245 240 243 245 245 241 242 244 241 242 246 252 254 254 254 258 259 259 261 263 266 266 269 272 275 278 282 282 281 282 286
Height
3172 3173 3174 3175 3176 3176 3176 3178 3178 3181 3182 3183 3183 3183 3185 3186 3187 3188 3189 3191 3192 3193 3193 3195 3196 3197 3198 3199 3200 3200 3201 3202 3203 3204 3205 3205 3206 3206 3206 3207 3207 3207 3207
3174 3174 3175 3176 3177 3177 3177 3179 3179 3181 3183 3184 3184 3185 3186 3187 3189 3190 3191 3193 3194 3195 3195 3197 3198 3199 3200 3201 3202 3203 3204 3205 3206 3207 3207 3208 3209 3209 3209 3209 3209 3209 3209
3175 3175 3175 3177 3178 3178 3179 3180 3181 3182 3183 3185 3186 3187 3187 3188 3190 3192 3193 3194 3196 3197 3198 3199 3200 3201 3202 3203 3204 3205 3206 3207 3208 3209 3209 3211 3211 3212 3212 3212 3212 3212 3211
3175 3176 3176 3178 3179 3179 3179 3181 3182 3184 3185 3186 3187 3189 3189 3189 3191 3193 3194 3196 3197 3199 3200 3201 3202 3203 3204 3205 3206 3207 3208 3209 3210 3211 3211 3212 3213 3213 3214 3214 3214 3213 3213
3175 3176 3177 3178 3181 3181 3180 3182 3182 3184 3186 3187 3188 3189 3190 3191 3192 3194 3195 3197 3198 3200 3202 3203 3204 3205 3206 3207 3208 3209 3210 3211 3212 3213 3213 3214 3214 3215 3215 3215 3215 3215 3214
3176 3176 3177 3178 3181 3182 3182 3182 3184 3184 3186 3188 3190 3191 3191 3192 3193 3195 3196 3197 3199 3201 3203 3204 3206 3207 3208 3209 3210 3211 3212 3213 3214 3214 3214 3215 3216 3216 3216 3216 3216 3216 3215
3176 3177 3177 3180 3180 3182 3183 3183 3184 3186 3186 3187 3190 3192 3193 3193 3194 3196 3197 3198 3199 3201 3203 3205 3207 3208 3209 3210 3211 3211 3212 3214 3215 3215 3214 3216 3217 3217 3218 3218 3217 3217 3216
3177 3177 3178 3179 3181 3181 3183 3184 3184 3186 3186 3187 3189 3191 3193 3194 3195 3196 3198 3199 3200 3201 3203 3204 3206 3208 3209 3210 3211 3212 3212 3213 3215 3215 3214 3217 3217 3217 3218 3218 3217 3217 3216
3177 3178 3178 3179 3180 3181 3181 3183 3185 3186 3186 3187 3189 3190 3192 3194 3195 3196 3197 3199 3200 3201 3203 3204 3206 3207 3209 3210 3211 3212 3212 3213 3214 3215 3215 3216 3217 3218 3218 3218 3217 3216 3216
3177 3177 3178 3178 3179 3181 3182 3182 3184 3185 3187 3187 3188 3190 3191 3193 3195 3196 3197 3199 3200 3201 3203 3204 3206 3207 3209 3210 3211 3212 3212 3213 3213 3215 3215 3216 3216 3217 3217 3217 3217 3216 3215
3176 3176 3176 3177 3178 3180 3182 3182 3183 3183 3185 3186 3187 3189 3191 3192 3194 3196 3197 3198 3200 3201 3202 3204 3205 3207 3208 3210 3211 3211 3212 3213 3214 3215 3215 3215 3216 3216 3217 3216 3216 3215 3214
3174 3176 3175 3175 3176 3178 3180 3181 3183 3183 3183 3185 3187 3189 3191 3192 3193 3195 3197 3198 3199 3201 3202 3204 3205 3206 3208 3209 3210 3211 3212 3213 3213 3215 3215 3215 3215 3216 3216 3215 3215 3214 3213
3171 3173 3173 3174 3174 3175 3177 3179 3181 3182 3183 3184 3185 3188 3189 3191 3192 3194 3196 3197 3198 3200 3202 3204 3205 3206 3207 3208 3210 3210 3211 3212 3212 3213 3213 3214 3214 3215 3215 3214 3213 3212 3212
3164 3168 3170 3171 3173 3173 3174 3176 3179 3180 3183 3185 3185 3186 3188 3190 3191 3193 3195 3196 3198 3199 3201 3203 3204 3205 3206 3207 3209 3210 3211 3210 3210 3211 3212 3213 3213 3213 3213 3212 3211 3210 3209
3163 3163 3166 3167 3170 3172 3171 3172 3175 3177 3180 3183 3184 3186 3186 3188 3190 3192 3193 3195 3197 3198 3199 3201 3203 3205 3206 3206 3208 3209 3210 3210 3210 3210 3210 3211 3211 3211 3210 3210 3209 3208 3207
3163 3160 3160 3164 3166 3167 3168 3170 3172 3174 3177 3179 3181 3184 3186 3186 3188 3190 3192 3194 3195 3197 3198 3199 3201 3203 3204 3205 3206 3207 3208 3208 3208 3207 3207 3208 3208 3208 3207 3207 3206 3205 3204
3158 3158 3155 3157 3160 3163 3163 3167 3167 3170 3172 3175 3178 3181 3183 3184 3186 3188 3190 3193 3193 3195 3195 3197 3198 3200 3201 3202 3203 3203 3204 3205 3205 3206 3205 3205 3205 3205 3204 3203 3203 3202 3201
3151 3151 3151 3150 3152 3158 3160 3159 3165 3165 3168 3170 3173 3176 3179 3180 3182 3184 3185 3189 3191 3191 3193 3194 3196 3196 3198 3198 3200 3201 3202 3202 3202 3202 3202 3202 3202 3201 3201 3200 3199 3198 3197
3142 3141 3141 3143 3147 3151 3157 3155 3158 3161 3163 3166 3167 3171 3174 3176 3178 3180 3182 3184 3186 3187 3189 3190 3191 3193 3194 3196 3196 3197 3197 3198 3199 3199 3199 3198 3197 3197 3196 3196 3195 3195 3194
3131 3133 3134 3136 3141 3145 3149 3151 3150 3154 3155 3159 3163 3165 3169 3170 3173 3176 3178 3180 3181 3182 3183 3186 3188 3188 3189 3190 3191 3191 3192 3192 3192 3192 3193 3193 3193 3192 3192 3192 3191 3191 3191
3124 3127 3127 3126 3128 3137 3139 3142 3143 3143 3149 3151 3154 3159 3162 3166 3167 3170 3172 3174 3175 3176 3179 3180 3181 3182 3184 3186 3185 3186 3186 3186 3186 3187 3188 3187 3186 3187 3187 3186 3186 3186 3186
3116 3119 3122 3119 3119 3123 3130 3134 3135 3138 3139 3144 3147 3149 3153 3156 3161 3164 3165 3167 3168 3169 3172 3174 3175 3177 3178 3179 3180 3179 3179 3181 3179 3181 3181 3181 3181 3180 3181 3181 3181 3181 3181
3110 3111 3113 3114 3115 3115 3122 3124 3128 3129 3129 3132 3135 3140 3142 3147 3152 3156 3158 3159 3162 3162 3164 3167 3169 3170 3171 3172 3173 3173 3172 3172 3174 3175 3174 3174 3174 3174 3174 3174 3175 3175 3176
3106 3105 3106 3108 3109 3110 3111 3115 3120 3121 3122 3124 3129 3133 3136 3138 3141 3146 3150 3152 3153 3155 3156 3158 3160 3162 3163 3165 3164 3165 3166 3166 3165 3166 3167 3167 3167 3167 3167 3167 3169 3170 3170
3103 3101 3100 3102 3104 3104 3106 3108 3109 3112 3117 3119 3121 3123 3127 3129 3130 3133 3137 3142 3144 3145 3146 3149 3151 3153 3153 3155 3157 3159 3158 3159 3159 3158 3158 3161 3160 3161 3161 3161 3161 3162 3162
3099 3097 3095 3096 3097 3098 3099 3100 3102 3104 3107 3112 3115 3114 3116 3119 3119 3121 3124 3128 3132 3135 3136 3139 3141 3143 3145 3146 3148 3148 3150 3150 3151 3151 3150 3152 3152 3152 3151 3151 3153 3154 3154